Wind_Speed
26 29 32 34 33 38 41 46 46 46 46 46 47 46 41 41 40 39 39 33 27 30 27 26 25 28 25 16 17 19 25 28 28 29 30 29 28 28 28 27 24 23 24 25 22 15 16 15 13
26 27 29 32 32 35 37 43 48 49 50 49 49 49 48 45 44 42 45 41 36 28 31 29 29 30 30 24 20 21 23 26 29 32 32 30 30 30 31 29 25 25 27 22 21 15 16 19 18
27 28 29 29 31 34 38 41 42 47 51 53 53 52 51 49 49 48 47 46 43 40 30 35 30 31 32 31 27 23 25 25 28 32 34 33 33 32 31 28 25 25 25 23 21 17 14 15 19
33 32 32 31 32 34 38 41 44 46 48 53 54 55 54 54 52 53 52 50 48 47 45 34 38 35 32 34 31 30 26 28 28 31 33 33 34 33 30 30 28 24 22 22 21 20 14 16 15
36 36 37 35 35 36 38 40 43 46 49 49 53 56 56 57 57 56 56 57 53 52 50 47 38 41 40 38 39 37 34 32 31 33 33 33 33 32 31 31 29 25 26 25 22 18 17 16 13
35 35 37 37 38 38 39 42 43 43 47 49 51 54 58 57 61 60 60 61 61 56 56 52 46 45 44 43 43 41 38 38 35 34 34 36 37 34 34 31 30 28 26 25 24 23 25 22 23
33 34 36 38 39 38 41 42 42 43 43 44 49 52 53 58 61 63 63 63 65 63 62 58 52 48 48 47 47 47 46 45 44 40 37 37 36 36 36 34 32 30 28 29 28 28 28 26 26
30 32 34 36 37 38 39 41 42 44 46 46 46 46 53 58 60 63 65 68 69 69 68 66 63 55 53 53 52 51 52 49 47 45 43 41 39 39 39 37 37 35 34 32 33 32 32 32 31
21 23 27 30 31 34 35 38 41 44 46 48 50 50 50 51 59 64 66 66 70 72 73 71 71 66 61 58 58 57 57 54 52 50 47 44 42 42 43 43 43 42 42 40 35 35 35 36 35
22 22 22 24 25 26 28 31 35 39 43 46 49 52 54 55 54 56 61 68 70 71 74 76 76 76 73 69 65 64 62 61 59 56 53 50 48 45 41 44 46 46 44 42 41 39 39 38 37
24 24 24 24 25 27 28 29 31 33 36 39 43 48 53 56 57 59 59 59 66 73 74 76 77 77 77 77 76 71 71 68 67 63 60 59 57 54 47 45 47 47 48 48 47 44 42 41 41
28 28 28 29 30 30 31 30 31 32 34 38 41 44 48 51 56 59 62 63 64 63 68 76 78 81 82 82 80 78 77 76 73 71 66 65 61 58 59 56 54 51 50 51 50 47 46 44 44
35 34 33 35 36 36 35 34 35 37 39 38 38 39 44 49 53 57 59 62 65 66 67 68 72 80 83 84 85 84 82 81 79 76 76 71 68 69 66 63 60 57 54 52 52 51 50 49 47
43 41 40 41 41 41 41 41 41 42 43 44 44 42 41 45 48 53 57 60 63 64 67 70 72 74 77 84 85 86 86 84 84 82 79 77 73 71 67 66 66 61 58 59 57 52 50 48 47
45 44 44 45 46 46 46 45 44 44 46 47 48 45 44 45 46 49 53 56 59 62 65 68 71 75 76 78 81 86 89 87 86 85 84 82 78 76 75 72 67 64 61 60 60 59 56 51 46
47 47 48 48 49 49 49 50 48 47 48 51 49 50 49 46 47 48 51 55 57 59 61 65 68 72 75 78 81 80 83 88 87 87 86 86 84 81 80 75 72 68 63 62 62 60 58 56 52
51 51 51 50 51 52 52 52 49 50 53 52 51 53 51 50 49 49 50 54 56 58 59 60 64 66 69 74 79 80 83 84 86 84 85 88 88 86 83 81 79 69 66 62 64 64 62 59 56
55 56 55 56 54 53 54 55 53 52 54 54 53 54 53 52 52 51 51 51 54 57 58 59 60 64 67 68 71 76 82 84 86 86 84 81 84 88 86 83 81 81 77 72 69 68 65 62 58
57 57 58 58 56 55 56 56 55 53 54 56 56 56 54 53 53 54 53 52 53 55 58 61 62 63 64 68 70 72 77 82 84 86 88 87 83 82 86 86 83 82 81 70 72 72 70 67 63
58 59 60 59 58 55 57 56 57 55 55 56 58 58 57 55 54 55 54 52 52 53 56 58 59 61 62 65 69 73 73 79 82 84 85 88 89 85 83 84 87 86 83 81 76 74 74 71 66
58 58 58 58 58 58 56 55 57 57 56 60 61 60 61 58 55 56 55 54 52 52 54 55 55 57 59 59 63 67 72 74 79 83 84 86 88 86 87 86 85 85 85 82 79 76 73 72 65
59 59 60 59 58 59 56 57 58 62 59 62 63 63 62 60 57 57 55 54 53 52 54 52 51 53 53 52 56 60 66 72 75 80 83 84 86 87 86 88 88 85 83 84 82 78 76 66 71
61 62 62 62 61 60 60 60 61 65 64 64 63 63 63 62 60 57 57 56 55 54 53 53 53 51 52 51 50 52 57 64 70 75 81 85 86 87 88 87 88 88 84 81 81 81 80 78 74
64 65 65 65 64 60 63 63 58 63 66 64 64 64 64 62 60 60 59 58 57 56 53 54 55 54 52 51 49 49 48 55 62 70 76 81 86 88 89 89 88 88 87 86 82 79 79 79 77
68 68 68 69 68 66 65 65 62 63 70 68 65 66 66 63 61 60 60 59 58 58 58 57 57 56 55 54 51 51 52 52 54 59 70 76 82 86 87 90 90 89 87 86 84 81 77 74 75
67 71 71 71 71 70 65 63 67 69 73 71 69 67 67 66 63 62 61 61 60 61 63 61 60 59 57 56 54 54 56 56 54 55 57 67 77 83 87 89 90 92 90 87 84 81 78 76 73
76 72 77 74 73 72 68 66 68 70 72 73 72 72 70 68 66 65 63 64 64 65 67 66 64 63 61 61 58 56 59 60 58 56 56 57 65 74 80 87 91 93 91 90 86 81 79 77 73
82 84 82 82 78 76 70 70 70 70 72 75 76 78 75 71 70 67 67 67 68 70 72 70 69 69 68 67 65 62 62 63 62 59 58 59 60 66 74 81 87 91 93 91 88 84 79 76 76
78 76 80 87 84 85 77 74 75 72 74 77 79 80 80 76 73 71 69 70 74 75 75 76 76 77 76 74 70 66 61 62 64 63 62 60 62 61 66 73 79 86 89 91 87 86 84 75 75
79 82 84 85 79 90 84 74 82 78 78 81 85 86 85 81 78 76 77 77 76 78 81 80 79 79 78 75 72 68 64 60 62 65 66 64 60 60 61 64 71 78 83 86 87 86 84 80 74
Wind_Direction
236 231 231 232 227 224 226 225 223 223 228 229 229 230 230 229 228 229 227 225 216 231 239 238 236 237 242 245 237 233 234 234 222 218 219 220 226 236 244 254 263 276 291 297 299 300 316 313 300
241 239 235 232 230 227 229 228 227 227 228 232 235 233 233 232 233 231 231 232 223 223 234 242 244 244 245 250 244 235 239 236 230 226 227 228 231 238 245 252 260 276 288 289 290 287 301 301 300
243 241 239 236 233 231 230 231 229 232 232 232 237 237 236 237 234 235 234 234 237 234 231 240 243 245 248 252 245 241 234 240 234 232 233 236 240 243 250 256 266 278 282 283 282 279 283 292 290
242 243 242 236 236 233 230 229 234 232 232 232 235 237 238 241 242 239 236 236 237 240 242 228 239 241 245 251 249 245 242 235 235 238 240 244 249 252 253 261 267 271 278 284 284 279 276 278 284
245 244 244 241 237 235 235 234 231 231 236 234 233 234 235 241 244 245 243 239 236 239 241 243 232 241 242 246 250 250 249 244 235 236 239 244 249 255 255 259 264 266 268 272 277 274 280 280 284
247 247 246 243 242 240 238 238 238 234 234 237 239 238 237 237 241 244 244 245 243 238 242 244 242 237 238 239 243 248 250 249 241 236 240 241 247 252 255 258 260 267 267 264 265 275 284 288 292
243 244 245 246 244 242 243 244 244 243 241 239 240 241 241 239 239 242 247 246 246 245 239 243 243 242 242 240 243 246 249 250 253 245 241 243 242 246 250 255 256 259 265 262 265 269 280 287 295
242 243 245 247 246 245 246 246 246 247 245 241 239 239 242 242 242 243 244 246 245 247 245 243 245 244 241 240 240 241 244 245 245 247 246 244 245 244 245 250 256 260 263 267 265 266 276 282 288
237 238 240 245 246 246 245 245 246 247 247 247 245 243 240 241 243 244 245 246 245 247 248 245 245 248 246 241 242 240 241 242 242 240 242 243 245 249 250 254 259 260 262 263 264 266 272 278 285
243 243 243 246 248 248 246 248 249 249 251 252 251 250 248 246 242 241 243 245 246 247 247 247 248 248 248 246 244 242 242 244 242 241 240 241 247 248 251 256 258 261 261 262 263 264 267 273 280
247 246 249 251 255 255 255 252 253 254 253 252 253 255 254 254 253 250 248 246 246 246 247 246 248 251 251 250 249 247 246 245 245 246 242 243 246 246 247 253 258 260 261 264 265 265 266 269 276
245 247 250 255 255 257 259 261 259 261 259 258 256 255 256 255 256 256 255 252 251 250 249 249 249 249 250 250 249 251 250 249 251 250 248 245 245 247 255 257 256 259 259 261 263 265 266 269 274
251 252 254 255 256 257 260 262 264 264 263 261 260 259 258 257 256 256 255 255 254 252 251 251 251 250 250 251 252 251 250 250 251 252 253 251 251 252 253 254 256 257 259 261 263 262 263 265 266
253 253 256 257 258 260 263 264 266 266 265 265 265 264 263 260 258 259 258 257 256 257 257 256 254 252 252 252 250 251 253 252 251 250 251 253 252 250 252 253 254 255 256 259 262 263 265 265 267
256 255 256 257 260 263 263 264 266 267 269 266 263 263 262 261 260 260 260 261 261 259 258 258 256 256 255 255 255 254 251 251 253 253 252 250 250 251 252 252 253 253 253 256 259 262 264 265 268
259 258 257 259 261 264 264 264 266 267 269 269 267 264 263 264 265 265 263 260 257 258 259 259 259 260 259 258 257 255 255 254 251 252 253 254 253 251 250 251 253 252 249 251 255 258 261 264 268
260 261 262 260 262 263 264 266 266 269 269 268 264 263 263 266 267 268 267 264 262 259 257 258 259 258 260 261 258 258 257 255 255 251 250 252 253 253 252 251 250 251 248 247 250 253 256 259 264
261 261 262 262 263 264 265 267 268 267 267 267 264 262 262 266 266 267 265 266 264 263 264 262 263 265 262 259 260 260 258 256 256 256 253 250 250 251 252 250 249 248 249 250 250 252 256 258 260
261 263 263 263 263 264 267 268 267 264 265 268 266 264 264 265 267 267 266 266 266 264 260 261 262 261 263 265 262 259 258 256 255 255 255 254 251 251 249 249 249 246 250 249 248 250 252 255 258
261 261 262 263 264 265 265 266 267 268 268 269 269 270 269 268 268 270 269 269 270 269 266 263 263 262 262 263 263 262 259 256 254 253 252 253 253 252 251 248 247 247 247 246 246 249 250 251 254
262 262 263 264 264 264 264 265 266 264 265 267 268 269 271 271 271 269 270 269 270 271 266 264 263 265 265 265 265 262 261 257 254 252 250 250 251 251 251 251 248 246 246 247 246 245 249 251 253
261 263 264 264 264 264 265 263 266 267 265 266 269 269 269 270 269 270 270 270 271 273 271 267 268 270 269 270 267 265 262 259 254 251 251 249 248 249 248 249 249 249 247 245 246 245 245 245 249
258 259 260 261 261 261 264 263 265 267 266 266 266 267 269 270 270 269 270 272 272 273 273 270 268 272 274 273 271 267 261 258 256 253 249 248 249 248 247 246 248 248 248 247 245 244 243 244 246
259 259 259 259 259 259 258 262 262 268 268 267 267 267 267 267 267 269 270 274 276 277 276 274 273 272 274 277 277 277 274 261 255 253 250 248 247 247 247 247 245 246 246 245 245 244 244 242 244
262 262 261 260 261 261 260 262 262 262 266 266 266 266 266 267 268 270 271 274 277 278 276 274 273 273 274 277 278 279 281 277 265 257 251 248 246 246 246 247 247 246 245 245 244 244 243 243 242
261 265 264 263 262 261 262 262 261 263 264 266 265 264 266 268 268 270 273 277 278 277 276 276 275 274 275 277 279 281 282 280 274 266 257 251 248 245 244 244 245 246 246 245 244 242 241 242 239
265 262 261 262 262 263 265 262 260 261 262 264 265 265 264 266 268 270 274 276 275 275 277 279 280 281 279 279 280 279 279 275 273 271 264 258 248 246 244 243 243 243 244 244 244 243 240 239 238
263 263 261 261 259 260 259 260 261 258 261 263 264 265 266 266 268 272 276 278 277 277 278 282 285 286 285 285 285 284 279 275 271 267 266 262 256 247 244 243 241 242 241 242 243 242 240 237 236
261 263 264 263 261 258 255 255 255 258 258 259 263 265 267 268 270 272 273 274 275 277 281 282 285 288 289 289 288 286 278 274 269 265 263 260 258 255 248 244 243 241 242 241 239 239 239 239 235
261 262 259 260 259 260 257 253 257 254 254 257 259 263 264 268 270 271 272 272 275 278 278 282 285 286 286 287 288 284 279 273 268 263 261 260 260 259 256 250 245 243 242 240 239 236 235 233 234
Height
10923 10926 10929 10934 10941 10945 10948 10951 10955 10956 10956 10956 10957 10960 10964 10966 10968 10972 10973 10974 10976 10978 10980 10980 10983 10984 10985 10987 10987 10988 10989 10991 10992 10993 10993 10994 10995 10995 10996 10996 10998 10998 10997 10996 10994 10992 10991 10991 10991
10919 10922 10925 10929 10935 10938 10941 10944 10948 10950 10951 10952 10952 10954 10957 10960 10962 10965 10968 10970 10972 10975 10977 10978 10979 10981 10982 10983 10985 10986 10987 10988 10990 10991 10991 10992 10993 10992 10993 10993 10995 10995 10994 10993 10992 10989 10987 10988 10989
10913 10916 10919 10924 10928 10930 10933 10936 10939 10942 10943 10945 10946 10949 10952 10953 10956 10958 10961 10965 10967 10968 10972 10974 10975 10976 10978 10978 10981 10982 10983 10984 10986 10988 10989 10990 10990 10990 10990 10990 10992 10992 10991 10991 10989 10987 10985 10985 10986
10906 10909 10912 10917 10920 10922 10924 10927 10930 10931 10934 10937 10939 10942 10944 10945 10947 10950 10954 10957 10960 10963 10964 10967 10969 10970 10971 10973 10975 10977 10979 10980 10981 10983 10985 10987 10987 10987 10987 10987 10988 10988 10988 10988 10987 10986 10982 10980 10981
10900 10903 10904 10909 10912 10914 10916 10918 10921 10924 10926 10928 10932 10933 10936 10938 10940 10943 10946 10948 10952 10955 10957 10959 10964 10965 10966 10967 10969 10971 10973 10975 10976 10978 10980 10982 10982 10984 10984 10984 10984 10984 10984 10984 10984 10983 10981 10979 10978
10894 10897 10897 10900 10903 10906 10908 10909 10912 10916 10919 10921 10923 10926 10929 10931 10932 10934 10938 10939 10942 10947 10949 10952 10955 10958 10960 10962 10962 10963 10966 10968 10970 10972 10975 10977 10978 10979 10979 10979 10980 10979 10981 10981 10981 10981 10980 10978 10977
10887 10889 10889 10891 10894 10899 10900 10902 10904 10907 10912 10914 10915 10917 10918 10922 10924 10926 10926 10930 10932 10935 10941 10943 10947 10948 10951 10953 10955 10956 10958 10960 10964 10966 10969 10970 10971 10972 10973 10973 10975 10975 10976 10977 10977 10977 10977 10975 10974
10880 10881 10883 10883 10886 10890 10892 10894 10896 10897 10899 10903 10906 10907 10909 10909 10912 10914 10917 10917 10920 10923 10927 10932 10935 10938 10941 10943 10945 10947 10949 10951 10954 10958 10961 10963 10966 10966 10966 10966 10967 10970 10971 10972 10972 10972 10972 10971 10971
10873 10875 10876 10876 10879 10882 10884 10885 10886 10887 10888 10890 10894 10898 10898 10899 10901 10903 10904 10907 10909 10912 10915 10921 10924 10928 10931 10933 10935 10937 10939 10941 10944 10948 10952 10955 10958 10961 10961 10960 10961 10962 10964 10965 10967 10967 10967 10966 10965
10868 10870 10870 10871 10872 10874 10876 10878 10879 10881 10881 10881 10881 10883 10885 10887 10890 10891 10892 10894 10896 10900 10903 10907 10911 10913 10917 10921 10924 10927 10930 10932 10935 10938 10942 10945 10949 10953 10955 10955 10955 10955 10956 10958 10960 10962 10962 10961 10960
10862 10864 10865 10865 10865 10866 10868 10870 10871 10872 10874 10874 10874 10873 10873 10875 10878 10880 10882 10883 10885 10887 10889 10893 10897 10900 10904 10908 10912 10916 10918 10921 10925 10928 10932 10936 10939 10943 10947 10949 10949 10948 10949 10949 10951 10953 10956 10956 10955
10855 10857 10858 10858 10859 10859 10860 10862 10863 10864 10864 10863 10865 10866 10866 10865 10865 10867 10868 10871 10873 10876 10878 10882 10886 10887 10889 10891 10895 10900 10906 10911 10914 10918 10922 10927 10929 10932 10937 10940 10942 10941 10941 10941 10942 10945 10947 10949 10948
10847 10849 10850 10850 10850 10850 10852 10854 10855 10854 10854 10854 10855 10856 10856 10855 10855 10854 10855 10857 10859 10861 10864 10867 10870 10871 10872 10876 10882 10886 10892 10895 10901 10906 10911 10915 10919 10922 10925 10929 10932 10933 10933 10932 10933 10936 10938 10940 10942
10838 10840 10840 10840 10840 10841 10843 10844 10845 10844 10844 10844 10843 10845 10845 10844 10844 10845 10845 10845 10846 10848 10850 10853 10855 10855 10856 10859 10865 10870 10875 10882 10886 10891 10897 10899 10904 10909 10913 10917 10920 10923 10925 10923 10925 10926 10928 10931 10934
10828 10829 10830 10829 10829 10830 10831 10833 10833 10833 10831 10831 10833 10834 10833 10834 10835 10835 10834 10833 10834 10835 10836 10837 10839 10839 10841 10845 10847 10854 10861 10865 10868 10876 10879 10883 10888 10894 10898 10903 10908 10912 10916 10914 10915 10917 10920 10922 10925
10816 10817 10818 10818 10817 10817 10818 10820 10822 10822 10819 10817 10820 10820 10819 10822 10821 10822 10822 10821 10823 10823 10824 10823 10825 10825 10827 10830 10832 10836 10840 10843 10853 10857 10862 10865 10872 10878 10883 10889 10893 10900 10904 10905 10904 10906 10909 10913 10916
10803 10804 10804 10806 10805 10805 10805 10805 10810 10809 10805 10806 10807 10805 10807 10808 10810 10810 10809 10807 10807 10809 10810 10811 10811 10812 10812 10812 10815 10817 10822 10824 10829 10838 10846 10848 10853 10860 10868 10873 10879 10886 10891 10893 10893 10895 10898 10902 10907
10789 10789 10791 10791 10794 10792 10791 10791 10796 10796 10792 10791 10791 10791 10793 10795 10796 10796 10795 10794 10794 10793 10794 10796 10797 10796 10796 10796 10796 10797 10801 10805 10810 10815 10823 10831 10832 10838 10847 10854 10863 10870 10877 10880 10882 10884 10888 10891 10896
10777 10776 10776 10777 10779 10779 10778 10778 10779 10781 10779 10776 10776 10777 10779 10781 10782 10781 10780 10780 10779 10779 10780 10780 10782 10782 10780 10778 10779 10779 10779 10783 10789 10795 10800 10805 10814 10819 10825 10834 10843 10852 10855 10865 10869 10871 10875 10879 10885
10763 10762 10761 10763 10765 10767 10764 10765 10762 10764 10765 10762 10761 10761 10763 10767 10767 10764 10764 10765 10765 10764 10764 10764 10765 10764 10764 10762 10761 10760 10762 10762 10766 10773 10779 10783 10790 10798 10804 10813 10819 10828 10838 10846 10854 10858 10861 10866 10873
10747 10747 10748 10750 10751 10752 10752 10754 10751 10750 10752 10747 10747 10748 10748 10750 10752 10750 10750 10750 10749 10749 10748 10748 10749 10747 10746 10746 10744 10742 10741 10743 10746 10751 10757 10763 10767 10777 10783 10790 10798 10808 10819 10828 10837 10845 10849 10853 10861
10731 10732 10732 10734 10736 10736 10741 10739 10737 10733 10739 10735 10732 10733 10732 10734 10737 10736 10735 10735 10734 10732 10731 10733 10733 10731 10730 10730 10728 10725 10724 10722 10726 10730 10735 10742 10747 10753 10762 10768 10776 10787 10798 10808 10818 10829 10835 10843 10845
10715 10716 10717 10718 10720 10722 10722 10723 10722 10715 10720 10720 10720 10718 10717 10718 10720 10721 10720 10719 10718 10717 10716 10715 10715 10716 10714 10713 10711 10708 10706 10705 10706 10710 10713 10720 10726 10732 10737 10746 10755 10765 10778 10789 10798 10809 10817 10825 10832
10700 10699 10701 10702 10703 10710 10703 10706 10712 10702 10697 10702 10702 10702 10702 10704 10705 10705 10704 10704 10701 10701 10700 10698 10697 10698 10699 10698 10696 10693 10689 10689 10689 10690 10694 10699 10703 10709 10718 10726 10733 10742 10754 10765 10777 10789 10798 10808 10817
10681 10683 10685 10685 10685 10689 10693 10691 10694 10690 10679 10681 10686 10685 10684 10686 10688 10689 10689 10689 10687 10684 10681 10682 10682 10683 10684 10683 10682 10679 10675 10673 10672 10674 10675 10678 10684 10689 10697 10705 10713 10721 10732 10744 10756 10771 10782 10792 10803
10666 10663 10666 10665 10666 10668 10676 10679 10673 10670 10661 10661 10665 10667 10668 10669 10672 10672 10672 10672 10670 10667 10664 10664 10665 10667 10668 10668 10667 10663 10659 10656 10655 10655 10658 10659 10663 10669 10676 10682 10691 10700 10711 10722 10735 10750 10764 10774 10786
10640 10646 10638 10644 10646 10648 10655 10660 10656 10653 10645 10642 10643 10644 10649 10652 10653 10655 10656 10655 10653 10649 10645 10646 10648 10648 10649 10648 10648 10647 10642 10638 10637 10637 10638 10640 10643 10646 10655 10661 10668 10677 10688 10700 10714 10730 10744 10756 10768
10614 10613 10617 10617 10623 10627 10637 10636 10636 10635 10631 10623 10621 10620 10626 10634 10635 10638 10637 10635 10632 10629 10627 10627 10627 10627 10628 10627 10627 10626 10623 10619 10618 10619 10620 10621 10623 10626 10631 10637 10646 10654 10663 10677 10693 10709 10723 10738 10750
10591 10594 10589 10586 10599 10599 10611 10616 10611 10617 10615 10607 10601 10599 10603 10612 10618 10619 10619 10617 10612 10610 10610 10609 10608 10606 10605 10605 10605 10604 10602 10600 10598 10597 10599 10602 10603 10608 10612 10618 10625 10632 10642 10655 10672 10687 10703 10719 10731
10570 10571 10563 10558 10577 10563 10581 10604 10589 10595 10593 10587 10580 10577 10584 10593 10597 10599 10597 10595 10597 10594 10589 10590 10590 10586 10584 10583 10583 10581 10580 10581 10579 10579 10578 10581 10588 10592 10595 10600 10606 10613 10622 10633 10648 10663 10679 10696 10712